Starlink 33671

operational
NORAD ID: 63320 Int'l Des: 2025-057 Owner: SPXS Country: US Constellation: starlink
LEOCIRCULAR

关于 Starlink 33671

正在加载描述...

实时位置

正在加载3D地球...

即将过境

高度历史

Altitude vs Time

uPlot chart will show altitude changes over time

两行轨道根数

1 63320U 25057P 25308.56138872 .00028287 00000-0 10320-2 0 9996
2 63320 43.0024 6.8767 0001446 292.7054 67.3645 15.27627880 36766
Epoch: Nov 4, 2025 • Age: 10 hours

当前状态

高度 482.7 km
速度 7.63 km/s
星下点 15.46°N, 129.3°E
发射日期 Mar 18, 2025
运行时间 0.6 years
类型 internet

技术详情

分类 Payload
质量 575.00 kg
干质量 530.00 kg
总质量 575.00 kg
长度 0.30 m
直径 4.10 m
跨度 29.00 m
形状 Box + pan
制造商 SPXS
平台类型 Starlink V2MO
阶段状态 In Orbit
所有者/国家 SPXS/US

大型星座

Loading constellations...